www.pogodaiklimat.ru

Погода и климат >> Архив погоды >> Россия >> Ненецкий АО >> Несь


ПОГОДА в Неси

  • Прогноз погоды в Неси
  • Монитор погоды в Неси

АРХИВ ПОГОДЫ в Неси

Время (UTC), дата Ветер
(напр.,м/с)
 
Видим.   Явления Облачность Т
(С)
Тd
(С)
f
(%)
Тe
(С)
Тes
(С)
Комфортность P
(гПа)
Po
(гПа)
Тmin
(С)
Tmax
(С)
R
(мм)
R24
(мм)
S
(см)
18 11.08 Ю 2 н/о н/о +3.6 +2.1 90 +1 +1 1020.3 1018.7
21 11.08 Ю 1 н/о н/о 0.0 -0.8 94 -2 -2 1020.4 1018.7
00 12.08 Ю 2 н/о н/о -2.1 -2.8 95 -6 -6 1020.4 1018.7
03 12.08 Ю 2 н/о н/о +4.0 +3.3 95 +1 +1 1020.3 1018.7
06 12.08 ЮЗ 3 н/о н/о +8.7 +3.5 70 +6 +6 1020.3 1018.7
09 12.08 З 3 н/о н/о +13.2 +3.0 50 +12 +12 1020.3 1018.7
12 12.08 З 3 н/о н/о +14.2 +5.3 55 +13 +13 1020.3 1018.7
15 12.08 ЮЗ 2 н/о н/о +15.2 +5.1 51 +15 +15 1018.9 1017.3
18 12.08 Ю 3 н/о н/о +7.5 +5.1 85 +5 +5 1018.9 1017.3
21 12.08 Ю 3 н/о н/о +5.0 +3.7 91 +1 +1 1018.9 1017.3
00 13.08 Ю 3 н/о н/о +2.9 +1.4 90 -1 -1 1018.9 1017.3
03 13.08 Ю 4 н/о н/о +8.2 +4.0 75 +5 +5 1018.9 1017.3
06 13.08 Ю 5 н/о н/о +13.8 +3.8 51 +12 +12 1017.6 1016.0
09 13.08 Ю 6 н/о н/о +17.2 +3.1 39 +16 +16 1016.3 1014.7
12 13.08 Ю 6 н/о н/о +18.4 +0.5 30 +18 +18 1014.8 1013.3
15 13.08 Ю 4 н/о н/о +17.4 +3.3 39 +17 +17 1013.5 1012.0
18 13.08 ЮВ 5 н/о н/о +7.7 +3.2 73 +4 +4 1013.6 1012.0
21 13.08 ЮВ 3 н/о н/о +4.2 +0.5 77 +1 +1 1012.3 1010.7
00 14.08 ЮВ 3 н/о н/о +0.5 -1.3 88 -4 -4 1012.3 1010.7
03 14.08 ЮВ 3 н/о н/о +5.9 +2.7 80 +3 +3 1010.9 1009.3
06 14.08 Ю 3 н/о н/о +14.2 +4.2 51 +13 +13 1009.6 1008.0
09 14.08 Ю 5 н/о н/о +18.9 +3.1 35 +19 +19 1008.2 1006.7
15 14.08 Ю 4 н/о н/о +14.7 +8.2 65 +14 +14 1008.3 1006.7
18 14.08 Ю 2 н/о н/о +12.2 +9.8 85 +11 +11 1008.3 1006.7
21 14.08 Ю 2 н/о н/о +11.6 +10.3 92 +10 +10 1008.3 1006.7
00 15.08 З 2 н/о н/о +10.9 +9.2 89 +10 +10 1008.3 1006.7
03 15.08 Ю 2 н/о н/о +11.8 +10.2 90 +11 +11 1008.3 1006.7
06 15.08 Ю 4 н/о н/о +17.3 +11.6 69 +17 +17 1008.2 1006.7
09 15.08 Ю 5 н/о н/о +17.5 +12.6 73 +17 +17 1006.8 1005.3
12 15.08 Ю 4 н/о н/о +19.5 +12.0 62 +21 +21 комфорт 1005.5 1004.0
15 15.08 Ю 5 н/о н/о +15.6 +12.0 79 +14 +14 1005.5 1004.0
18 15.08 ЮВ 2 н/о н/о +12.7 +11.8 94 +12 +12 1005.6 1004.0
21 15.08 В 2 н/о н/о +12.2 +11.4 95 +11 +11 1002.9 1001.3
00 16.08 СВ 3 н/о н/о +12.8 +12.0 95 +11 +11 1001.5 1000.0
03 16.08 С 2 н/о н/о +12.4 +11.6 95 +11 +11 1000.2 998.7
06 16.08 С 4 н/о н/о +14.2 +13.2 94 +13 +13 1001.5 1000.0
09 16.08 СЗ 4 н/о н/о +13.4 +12.5 94 +12 +12 1004.2 1002.7
12 16.08 СЗ 3 н/о н/о +11.8 +11.0 95 +10 +10 1008.3 1006.7
15 16.08 З 3 н/о н/о +10.0 +9.2 95 +8 +8 1009.6 1008.0
18 16.08 З 2 н/о н/о +9.6 +9.0 96 +8 +8 1012.3 1010.7
21 16.08 ЮЗ 1 н/о н/о +10.2 +9.6 96 +10 +10 1013.6 1012.0
00 17.08 штиль 0 н/о н/о +10.1 +9.5 96 +9 +9 1014.9 1013.3
03 17.08 штиль 0 н/о н/о +10.3 +9.7 96< +9 +9 1016.3 1014.7
06 17.08 СВ 1 н/о н/о +12.0 +11.2 95 +12 +12 1017.6 1016.0
09 17.08 З 1 н/о н/о +13.4 +11.3 87 +14 +14 1018.9 1017.3
12 17.08 З 3 н/о н/о +13.1 +11.0 87 +12 +12 1020.3 1018.7
15 17.08 З 2 н/о н/о +14.9 +10.3 74 +15 +15 1020.3 1018.7
18 17.08 Ю 3 н/о н/о +9.6 +8.5 93 +7 +7 1020.3 1018.7
21 17.08 Ю 4 н/о н/о +10.8 +9.4 91 +8 +8 1021.6 1020.0
00 18.08 Ю 4 н/о н/о +9.5 +8.4 93 +7 1021.6 1020.0
03 18.08 Ю 3 н/о н/о +10.8 +9.9 94 +9 1022.9 1021.3
06 18.08 ЮЗ 4 н/о н/о +17.4 +12.3 72 +17 1022.9 1021.3
09 18.08 ЮЗ 4 н/о н/о +20.4 +9.9 51 +22 1022.8 1021.3
12 18.08 ЮЗ 3 н/о н/о +21.9 +8.0 41 +23 1022.8 1021.3

 

Местоположение метеостанции Несь (Ненецкий АО, Россия): широта 66.60 долгота 44.68 высота над уровнем моря 13 м.

В архиве по умолчанию представлена погода в Неси за последнюю неделю. Архивные данные за месяц целиком и за предыдущие месяцы, начиная с января 2011 года, Вы можете получить, выбрав интересующий диапазон дат из раскрывающегося списка и нажав кнопку "Ввод!".


*Определитесь, кто Вы:
робот инопланетянин человек

Внимание! Время в таблицах - всемирное. Для получения местного времени необходимо прибавить поправку, которая равна 3 ч.

Смотрите также архив погоды в соседних городах и на ближайших метеорологических станциях:

Погода в Абрамовском маяке (Архангельская область, Россия) (68 км)
Погода в Мезене (Архангельская область, Россия) (84 км)
Погода на Моржовец Острове (Архангельская область, Россия) (98 км)
Погода в Мосеево (Архангельская область, Россия) (115 км)
Погода в Нижней Пеше (Ненецкий АО, Россия) (137 км)
Погода в Шойне (Ненецкий АО, Россия) (144 км)
Погода на Мысе Микулкин (Ненецкий АО, Россия) (158 км)
Погода на Сосновец Острове (Мурманская область, Россия) (178 км)
Погода в Кепино (Архангельская область, Россия) (187 км)
Погода в Лешуконском (Архангельская область, Россия) (196 км)

Пояснения к столбцам:

Ветер - указаны скорость ветра в м/с - средняя за 10 мин, порывы в срок и между сроками (в фигурных скобках) и направление, откуда дует ветер: С - северный, СВ - северо-восточный, В - восточный, ЮВ - юго-восточный, Ю - южный, ЮЗ - юго-западный, З - западный, СЗ - северо-западный.
Видимость - горизонтальная дальность видимости в метрах или километрах. При видимости от 1 до 10 км при отсутствии осадков обычно наблюдается дымка, при ухудшении видимости до 1 км и менее - туман. В сухую погоду видимость может ухудшаться дымом, пылью или мглою.
Явления - указаны атмосферные явления, наблюдавшиеся в срок или в последний час перед сроком; фигурными скобками обозначены явления, наблюдавшиеся между сроками (за 1-3 часа до срока); квадратными скобками обозначены град или гололедные отложения с указанием их диаметра в мм.
Облачность - указаны через наклонную черту общая и нижняя облачность в баллах и высота нижней границы облаков в метрах; квадратными скобками обозначены формы облаков: Ci - перистые, Cs - перисто-слоистые, Cc - перисто-кучевые, Ac - высококучевые, As - высокослоистые, Sc - слоисто-кучевые, Ns - слоисто-дождевые, Cu - кучевые, Cb - кучево-дождевые. Подробнее классификацию облаков см. в Атласе облаков (PDF).
T - Температура воздуха - температура, измеренная на высоте 2 м над землей.
Td - Температура точки росы - температура, при понижении до которой содержащийся в воздухе водяной пар достигнет насыщения.
f - Относительная влажность воздуха - влажноcть воздуха, измеренная на высоте 2 м над землей.
Te - Эффективная температура - температура, которую ощущает одетый по сезону человек в тени. Характеристика душности погоды. При расчете учитывается влияние влажности воздуха и скорости ветра на теплоощущения человека.
Tes - Эффективная температура на солнце - температура, которую ощущает человек, с поправкой на солнечный нагрев. Характеристика знойности погоды. Зависит от высоты солнца над горизонтом, облачности и скорости ветра. Ночью, в пасмурную погоду, а также при ветре 12 м/с и более поправка равна нулю.
P - Атмосферное давление - приведенное к уровню моря атмосферное давление.
Po - Атмосферное давление - измеренное на уровне метеостанции атмосферное давление.
Tmin - Минимальная температура - минимум температуры воздуха на высоте 2 м над землей.
Tmax - Максимальная температура - максимум температуры воздуха на высоте 2 м над землей.
R - Количество осадков - Количество выпавших осадков за период времени, мм. При наведении курсора мыши на число - период времени, за который выпало указанное количество осадков.
R24 - Количество осадков - Количество выпавших осадков за 24 часа, мм.
S - Снежный покров - Высота снежного покрова, см. При наведении курсора мыши на число - состояние снежного покрова и степень покрытия местности в баллах.